RH
41 45 48 50 50 56 67 72 74 78 79 82 85 82 80 75 73 71 66 53 45 42 36 31 33 34 38 49 42 44 44 44 54 57 56 51 46 49 45 58 71 71 58
39 44 45 44 46 50 49 56 71 82 86 78 77 74 72 67 52 45 45 39 31 31 35 38 39 39 38 38 36 38 41 45 46 52 51 48 46 46 42 32 36 41 46
37 42 46 51 52 43 33 32 35 37 41 46 48 48 48 58 54 43 33 33 35 38 41 40 35 32 30 30 25 25 23 38 32 46 50 48 46 56 48 45 44 48 43
36 40 48 55 54 40 36 33 33 35 45 54 54 59 50 36 32 33 36 40 43 43 36 35 34 30 26 18 10 14 12 36 46 36 40 40 52 60 58 43 42 41 36
37 44 52 59 56 43 39 36 35 36 37 35 32 31 31 32 35 41 45 44 40 39 39 36 32 26 17 9 7 8 9 16 41 30 38 47 54 56 50 47 40 41 36
41 50 60 63 51 44 41 38 35 34 34 34 34 34 35 39 43 45 43 43 43 42 39 35 26 16 10 7 7 8 8 9 16 23 27 47 61 59 48 47 48 50 53
45 55 60 64 66 62 47 44 40 39 39 38 38 38 40 43 46 46 49 48 43 41 39 33 20 10 7 7 8 9 10 13 23 22 42 36 45 53 47 50 56 59 64
47 54 57 63 70 67 59 49 45 43 42 41 41 42 46 48 50 52 50 47 43 39 34 25 14 8 7 9 11 12 20 31 32 38 40 42 47 45 49 54 60 65 64
47 50 58 64 70 69 65 52 48 46 44 44 44 48 51 54 55 52 49 45 40 33 24 14 8 8 10 14 18 21 27 31 32 35 38 42 45 50 51 61 61 59 58
46 50 59 64 67 68 62 55 52 49 47 46 50 55 58 56 54 50 45 40 32 22 11 8 8 10 13 19 21 23 26 32 34 38 42 46 48 50 54 59 57 56 57
47 52 58 65 68 67 58 57 54 52 49 52 58 59 58 55 52 47 41 31 15 9 8 9 10 15 19 22 25 28 32 34 39 43 47 49 51 54 54 58 60 60 62
47 53 59 68 69 67 62 60 58 54 52 59 61 60 57 54 48 41 30 14 9 8 9 12 17 22 24 27 31 34 36 38 44 48 51 53 56 59 63 63 64 66 69
49 53 62 67 66 65 61 60 58 55 58 64 62 58 54 49 45 40 21 10 9 10 13 20 25 27 29 33 37 38 39 47 53 55 57 61 64 66 65 67 73 73 78
51 55 63 65 63 63 60 57 58 58 64 64 61 56 52 48 42 29 14 10 11 14 22 27 30 33 37 39 39 38 44 56 63 66 66 67 66 65 69 72 80 91 95
52 56 63 63 64 62 59 55 58 63 67 66 62 58 52 44 29 13 10 11 16 23 29 34 39 40 39 37 41 48 64 70 76 74 70 65 64 67 72 74 85 94 94
51 55 63 64 65 63 59 56 60 68 69 68 64 57 46 32 14 11 12 16 23 30 37 41 42 41 40 44 56 69 79 85 83 78 70 67 65 64 68 79 80 91 95
49 57 65 69 68 64 61 59 63 71 70 66 59 49 36 19 11 12 16 24 32 38 41 42 42 42 42 50 60 75 89 91 81 74 69 68 68 71 76 79 87 87 84
50 60 68 74 71 66 63 57 69 73 67 59 50 39 26 12 12 16 24 31 38 42 42 41 42 46 46 52 64 83 91 85 80 75 73 73 77 75 88 92 96 87 91
62 71 76 76 71 70 66 70 74 71 60 54 42 29 14 13 16 21 28 36 40 39 39 41 44 46 46 54 70 86 88 86 83 81 80 84 94 86 89 95 96 93 85
67 72 76 74 74 67 70 73 75 64 55 48 40 18 13 17 21 28 36 38 38 39 42 46 45 44 50 61 76 83 88 89 89 90 90 85 83 88 96 95 92 95 84
59 67 75 74 67 70 73 76 69 57 48 47 29 14 17 21 31 37 38 35 39 45 46 44 44 51 58 66 74 82 87 92 95 94 94 92 83 95 94 78 90 86 95
67 75 72 69 70 74 78 71 56 49 53 38 15 17 20 32 37 37 38 42 47 46 43 46 52 61 64 70 77 82 85 86 97 96 96 89 98 90 77 81 81 87 88
69 72 70 70 75 80 79 57 55 58 39 16 18 20 30 36 38 39 46 48 46 46 48 56 66 73 80 82 82 85 86 90 92 94 91 97 87 78 81 83 86 88 90
71 73 70 76 81 83 74 58 60 42 16 18 20 29 36 39 41 49 48 47 46 54 64 72 85 91 91 91 88 91 96 96 89 96 97 82 80 81 84 87 89 92 96
75 79 76 80 78 82 65 64 35 17 18 20 27 37 41 45 51 49 47 49 56 69 83 90 94 96 94 90 89 92 94 94 97 95 92 86 86 90 91 93 94 96 98
77 83 82 80 79 69 57 28 18 18 19 25 37 43 45 50 49 47 49 52 64 71 76 84 89 89 90 90 90 91 93 97 91 94 91 90 96 96 97 98 98 98 99
Wind_Speed
8 7 9 10 12 13 15 15 14 14 14 13 13 12 10 9 8 7 7 7 7 8 8 10 11 13 14 14 17 18 21 22 20 23 25 24 16 18 22 17 19 26 30
12 12 13 13 14 16 16 17 16 15 14 13 14 13 13 12 11 10 8 8 9 10 12 13 14 17 18 18 20 20 22 20 19 21 26 15 25 14 22 29 30 28 27
17 16 16 15 16 17 17 17 17 17 16 15 15 15 14 12 10 8 8 9 9 11 14 16 18 20 20 19 20 19 19 20 20 15 14 15 14 34 24 27 20 20 27
18 18 17 16 17 18 18 17 17 16 15 14 14 13 11 10 9 7 7 8 11 14 17 20 21 21 20 19 19 17 18 16 17 19 17 19 23 28 29 16 30 22 25
21 20 18 17 17 18 17 17 16 15 15 13 12 10 10 9 8 6 8 11 15 19 22 23 23 21 20 19 19 19 20 19 19 21 20 20 22 25 29 37 28 31 29
22 19 17 17 18 17 17 16 15 15 13 11 11 9 9 8 6 8 10 13 16 19 23 24 22 20 20 20 21 21 22 22 22 23 23 20 23 26 27 34 37 36 34
23 20 19 17 16 16 16 14 13 14 12 10 9 7 6 5 6 9 12 15 18 20 24 23 21 20 21 21 21 23 24 24 24 27 24 25 25 25 28 31 38 38 37
21 20 18 17 16 15 14 13 12 11 10 8 6 5 4 5 7 11 14 16 18 20 22 21 20 20 20 21 22 24 24 21 24 22 25 25 26 27 27 30 32 41 41
23 22 19 17 15 14 13 13 11 10 8 6 4 3 4 7 10 13 16 18 19 19 19 19 19 19 20 21 23 25 24 23 24 24 26 25 29 28 29 29 29 31 40
23 21 19 17 15 14 14 12 10 9 7 4 2 3 6 8 11 15 17 18 18 18 17 17 18 20 22 24 25 27 26 25 24 26 27 28 29 31 30 32 31 31 34
23 22 20 17 16 14 13 12 10 8 6 3 0 3 6 10 13 15 17 18 16 16 17 19 21 23 25 26 26 25 24 22 26 26 28 30 30 31 31 32 33 34 32
23 21 20 18 16 14 13 11 10 8 7 3 2 5 8 12 14 16 17 15 15 17 19 21 23 25 25 26 25 25 22 26 28 29 30 31 31 32 32 32 33 33 34
23 22 20 18 16 15 13 11 10 9 7 4 3 6 10 13 15 16 15 14 16 19 20 23 24 25 26 25 24 23 25 28 28 29 30 31 31 32 32 32 33 36 36
23 21 20 18 16 15 13 12 11 10 7 4 5 8 12 15 17 16 15 16 18 21 23 24 25 25 25 25 24 25 30 29 29 29 30 30 31 31 33 36 35 33 36
23 22 20 18 17 15 13 12 11 9 7 5 7 11 14 16 15 14 16 18 21 23 24 25 25 25 25 23 26 31 31 31 31 30 29 30 31 32 31 32 34 38 39
21 20 18 18 17 16 14 13 12 10 5 5 9 13 15 15 15 16 19 21 22 24 24 25 24 25 26 26 27 27 31 30 30 31 32 31 32 31 32 31 36 36 39
18 18 17 16 16 15 14 13 11 7 4 6 10 13 15 15 16 19 21 22 23 25 26 24 25 27 30 26 27 28 29 28 29 31 32 34 33 32 37 37 36 37 39
14 15 15 16 15 15 13 13 10 6 4 8 10 13 16 16 18 20 20 22 24 25 25 27 28 28 28 27 27 27 28 29 30 31 32 34 35 39 35 40 42 45 43
12 13 14 15 16 15 14 11 8 5 6 8 11 15 16 18 19 21 23 25 26 27 28 29 30 29 29 26 25 27 29 33 33 32 32 35 36 37 37 40 44 47 46
12 13 14 14 14 13 12 9 6 5 6 10 14 16 17 19 21 23 26 26 27 29 29 29 28 27 28 24 25 26 31 33 35 36 38 35 36 36 38 40 45 43 45
10 11 12 12 13 12 10 7 5 6 8 13 15 16 17 20 22 25 26 27 27 28 28 28 27 25 23 26 26 27 30 32 37 42 41 39 38 38 38 43 39 39 40
11 11 12 12 10 9 8 6 4 7 12 14 14 16 19 21 24 26 27 26 25 27 27 27 27 25 24 25 28 28 30 33 38 40 41 41 41 38 42 36 36 36 35
10 10 10 10 9 7 6 4 6 10 12 13 15 17 21 23 24 24 24 25 24 25 26 27 27 28 28 31 28 30 33 36 38 39 40 39 40 39 34 36 33 32 36
9 10 10 9 7 6 5 7 10 10 11 13 16 20 23 24 23 21 22 23 24 26 26 29 30 32 33 31 34 39 41 40 42 41 40 40 35 34 34 35 35 35 34
8 9 9 7 7 7 8 8 8 9 12 15 19 21 22 22 22 21 22 24 22 23 28 30 32 33 34 35 35 37 40 40 40 39 38 33 35 36 36 36 36 37 36
9 9 9 9 8 7 7 7 8 11 14 18 20 20 22 21 21 23 27 22 23 23 24 26 26 30 30 33 36 37 37 37 36 34 32 35 34 35 37 38 40 41 40
Wind_Direction
161 133 116 109 107 104 102 97 101 101 108 117 125 125 118 114 105 92 79 64 55 41 23 11 360 352 346 335 330 328 322 323 322 314 314 307 318 307 297 282 280 280 289
162 141 127 119 108 105 103 104 104 107 111 120 125 123 117 106 99 90 77 55 35 23 10 359 348 340 336 330 329 330 327 324 324 326 321 321 312 308 288 296 300 300 302
166 150 138 127 117 111 110 110 109 107 107 109 109 106 101 94 86 73 53 36 16 2 351 346 344 340 338 333 331 331 331 328 328 324 325 326 314 316 315 308 314 292 292
165 153 142 130 125 119 117 112 110 110 111 116 117 120 114 101 84 62 37 8 355 351 349 345 341 339 339 336 337 332 334 329 325 322 319 306 303 309 310 302 298 306 291
164 157 147 135 131 127 124 120 120 119 117 114 111 110 104 93 79 52 21 4 353 347 344 343 340 337 336 336 336 336 336 332 321 321 318 310 307 306 306 307 305 299 298
164 157 149 140 138 134 131 129 128 122 118 113 107 100 93 85 53 24 9 1 351 343 337 339 337 335 334 335 334 332 329 325 319 317 317 311 307 305 305 302 303 302 303
166 161 154 146 144 141 138 133 132 126 123 119 112 101 85 55 23 8 356 348 342 336 333 332 332 332 331 330 327 325 324 322 318 320 312 309 300 299 301 300 300 301 302
170 168 161 154 150 147 145 143 142 137 134 127 119 103 68 28 3 350 342 338 334 332 328 325 326 326 326 326 324 323 319 320 309 309 301 304 299 299 297 297 302 304 302
174 170 164 161 156 151 150 156 155 151 149 144 123 76 25 4 353 343 338 336 331 327 325 325 326 326 326 323 322 321 320 312 312 304 305 303 300 300 299 295 297 297 302
174 171 169 165 159 157 159 162 166 168 168 156 117 25 3 354 347 341 338 333 328 323 325 326 326 325 324 322 320 321 316 311 306 308 304 302 303 301 302 297 297 293 292
175 174 173 168 165 167 169 174 178 181 177 172 124 352 347 346 344 341 337 331 328 327 327 326 325 324 322 320 318 315 314 307 308 306 304 302 302 301 301 299 299 296 294
177 177 175 172 171 169 174 177 182 187 192 202 280 325 335 339 340 340 338 333 329 327 324 322 321 322 319 316 315 314 310 308 308 306 304 302 302 301 301 302 300 298 300
178 177 177 178 176 175 172 179 187 196 206 229 287 320 331 336 336 334 330 330 327 324 323 321 320 319 317 316 314 313 307 309 306 304 303 302 303 302 303 303 303 302 301
179 180 182 182 181 179 178 180 189 203 216 246 296 322 329 330 331 329 330 329 326 324 322 320 319 318 316 313 315 303 310 310 306 304 304 303 302 302 303 302 301 302 303
185 185 184 184 184 182 180 178 194 206 224 270 315 327 329 330 331 330 329 327 325 323 321 319 318 314 312 314 302 311 311 311 309 309 307 304 303 302 302 303 305 305 305
188 188 187 186 186 185 183 187 199 211 240 304 328 331 331 331 330 330 328 326 325 323 319 317 312 311 311 308 310 309 311 311 311 310 309 308 308 307 305 304 304 302 305
189 188 188 187 186 184 183 187 198 213 255 316 328 331 330 329 329 328 327 326 323 320 318 312 312 308 308 312 310 312 310 316 313 310 310 310 309 308 308 308 305 305 304
179 180 179 176 176 174 174 188 200 221 282 319 330 330 328 326 326 327 325 321 320 317 315 314 310 309 310 311 311 312 317 313 312 311 311 310 308 309 312 310 311 313 315
144 153 163 168 170 178 186 192 207 248 306 325 331 325 323 325 327 326 323 322 318 319 317 313 313 312 310 311 313 315 315 314 313 314 311 311 311 314 312 313 315 316 311
143 154 162 170 169 176 184 196 225 287 305 332 324 321 324 326 325 324 322 320 320 317 315 313 311 311 309 314 314 315 315 314 314 315 316 316 315 314 315 316 316 314 313
149 156 155 153 171 179 189 213 262 284 320 326 319 319 325 324 323 323 322 321 318 313 311 312 313 313 314 313 313 316 315 315 315 317 319 318 317 314 317 315 316 313 314
144 147 153 166 174 189 205 232 271 318 322 314 317 323 326 325 324 322 321 316 314 312 314 315 314 314 314 312 315 316 317 317 316 318 318 316 315 319 317 316 317 316 315
154 158 166 177 189 201 231 256 289 313 311 316 322 323 324 325 322 318 316 314 314 313 312 314 314 315 315 317 319 319 322 320 319 318 316 316 320 319 318 319 319 319 321
171 173 177 188 205 230 264 279 292 302 311 318 322 323 323 322 321 312 312 311 310 310 310 312 315 315 318 321 325 325 323 323 321 322 323 320 320 319 321 324 324 323 322
187 187 187 199 221 246 262 278 290 308 315 318 321 323 320 317 316 312 311 310 307 304 308 311 311 315 319 321 321 321 322 322 322 321 323 324 325 326 325 324 323 324 324
202 197 199 208 233 257 260 281 302 312 312 316 322 318 317 317 313 313 313 311 310 310 307 306 309 312 313 317 319 321 322 322 324 324 325 324 326 324 324 324 324 327 328